DW5684 Weather Reports


Display with metric or nautical units.
time (UTC)temp
F
wind
direction
speed
MPH
gust
MPH
rain 1hr
in
rain 24hr
in
rain mn
in
humidity
%
barometer
mb
20260504231308 79 209 4.0 8.0 0.00 0.00 0.00 54 1004.5
20260504230806 79 207 2.0 8.0 0.00 0.00 0.00 54 1004.5
20260504230301 79 230 4.0 9.0 0.00 0.00 0.00 54 1004.4
20260504225836 79 236 4.0 9.0 0.00 0.00 0.00 53 1004.4
20260504225310 79 212 4.0 9.0 0.00 0.00 0.00 52 1004.5
20260504224805 80 221 2.0 6.0 0.00 0.00 0.00 55 1004.5
20260504224319 79 278 1.0 8.0 0.00 0.00 0.00 53 1004.5
20260504223833 79 229 2.0 9.0 0.00 0.00 0.00 52 1004.5
20260504223307 80 239 6.0 11.0 0.00 0.00 0.00 51 1004.4
20260504222802 80 223 3.0 11.0 0.00 0.00 0.00 53 1004.4
20260504222301 80 167 3.0 7.0 0.00 0.00 0.00 52 1004.4
20260504221815 81 213 3.0 11.0 0.00 0.00 0.00 55 1004.4
20260504221309 81 228 4.0 13.0 0.00 0.00 0.00 50 1004.4
20260504220803 81 186 6.0 13.0 0.00 0.00 0.00 50 1004.4
20260504220318 81 208 4.0 9.0 0.00 0.00 0.00 52 1004.5
20260504215832 82 191 4.0 9.0 0.00 0.00 0.00 51 1004.4
20260504215305 82 218 2.0 8.0 0.00 0.00 0.00 51 1004.5
20260504214800 82 221 2.0 14.0 0.00 0.00 0.00 50 1004.5
20260504214259 81 217 5.0 14.0 0.00 0.00 0.00 50 1004.6
20260504213814 81 224 4.0 9.0 0.00 0.00 0.00 52 1004.6
20260504213309 80 205 4.0 11.0 0.00 0.00 0.00 52 1004.5
20260504212804 80 208 3.0 11.0 0.00 0.00 0.00 52 1004.5
20260504212318 80 291 3.0 12.0 0.00 0.00 0.00 52 1004.6
20260504211833 81 248 7.0 16.0 0.00 0.00 0.00 52 1004.6
20260504211307 80 228 7.0 16.0 0.00 0.00 0.00 50 1004.8
20260504210801 81 217 4.0 12.0 0.00 0.00 0.00 50 1004.7
20260504210300 81 197 6.0 12.0 0.00 0.00 0.00 50 1004.7
20260504205835 82 245 5.0 13.0 0.00 0.00 0.00 51 1004.9
20260504205308 81 219 5.0 13.0 0.00 0.00 0.00 50 1005.0
20260504204802 82 216 5.0 12.0 0.00 0.00 0.00 51 1005.0
20260504204316 81 197 7.0 12.0 0.00 0.00 0.00 51 1005.0
20260504203810 81 221 5.0 13.0 0.00 0.00 0.00 51 1005.2
20260504203305 81 205 9.0 13.0 0.00 0.00 0.00 49 1005.2
20260504202820 81 229 5.0 11.0 0.00 0.00 0.00 50 1005.3
20260504202314 81 188 6.0 13.0 0.00 0.00 0.00 50 1005.3
20260504201810 81 219 5.0 14.0 0.00 0.00 0.00 50 1005.3
20260504201329 81 202 5.0 14.0 0.00 0.00 0.00 50 1005.3
20260504200803 81 184 4.0 14.0 0.00 0.00 0.00 53 1005.4
20260504200318 81 217 3.0 14.0 0.00 0.00 0.00 52 1005.5
20260504195812 81 219 5.0 12.0 0.00 0.00 0.00 50 1005.6
20260504195328 81 215 4.0 12.0 0.00 0.00 0.00 52 1005.5
20260504194801 80 209 4.0 15.0 0.00 0.00 0.00 52 1005.6
20260504194317 80 225 6.0 12.0 0.00 0.00 0.00 49 1005.8
20260504193811 81 226 6.0 12.0 0.00 0.00 0.00 51 1005.8
20260504193306 81 214 5.0 12.0 0.00 0.00 0.00 52 1006.0
20260504192804 81 201 4.0 9.0 0.00 0.00 0.00 50 1006.0
20260504192259 81 236 2.0 13.0 0.00 0.00 0.00 50 1006.1
20260504191814 81 219 4.0 13.0 0.00 0.00 0.00 50 1006.1
20260504191309 80 207 4.0 13.0 0.00 0.00 0.00 50 1006.1
20260504190803 80 170 8.0 13.0 0.00 0.00 0.00 50 1006.1
20260504190317 80 120 8.0 12.0 0.00 0.00 0.00 50 1006.1
20260504185812 80 223 3.0 14.0 0.00 0.00 0.00 52 1006.1
20260504185327 80 223 5.0 11.0 0.00 0.00 0.00 51 1006.2
20260504184804 80 240 6.0 11.0 0.00 0.00 0.00 52 1006.2
20260504184319 80 179 3.0 10.0 0.00 0.00 0.00 52 1006.3
20260504183814 80 207 5.0 12.0 0.00 0.00 0.00 51 1006.2
20260504183307 80 231 6.0 12.0 0.00 0.00 0.00 53 1006.2
20260504182803 80 219 4.0 15.0 0.00 0.00 0.00 52 1006.2
20260504182315 80 227 6.0 15.0 0.00 0.00 0.00 51 1006.3
20260504181808 79 240 5.0 14.0 0.00 0.00 0.00 51 1006.3
20260504181302 80 236 7.0 14.0 0.00 0.00 0.00 50 1006.2
20260504180815 80 232 5.0 11.0 0.00 0.00 0.00 51 1006.3
20260504180314 80 240 5.0 11.0 0.00 0.00 0.00 52 1006.3
20260504175807 79 203 5.0 12.0 0.00 0.00 0.00 55 1006.3
20260504175304 78 223 7.0 14.0 0.00 0.00 0.00 51 1006.3
20260504174837 78 127 6.0 14.0 0.00 0.00 0.00 50 1006.4
20260504174310 78 198 7.0 13.0 0.00 0.00 0.00 51 1006.3
20260504173805 78 230 8.0 13.0 0.00 0.00 0.00 51 1006.2
20260504173300 78 223 7.0 14.0 0.00 0.00 0.00 54 1006.3
20260504172815 78 185 7.0 14.0 0.00 0.00 0.00 52 1006.2
20260504172309 78 209 6.0 13.0 0.00 0.00 0.00 52 1006.3
20260504171808 77 212 5.0 17.0 0.00 0.00 0.00 53 1006.3
20260504171304 77 216 6.0 18.0 0.00 0.00 0.00 52 1006.3
20260504170818 77 233 9.0 18.0 0.00 0.00 0.00 52 1006.4
20260504170332 77 203 6.0 16.0 0.00 0.00 0.00 53 1006.3
20260504160326 75 184 7.0 14.0 0.00 0.00 0.00 56 1006.9
20260504150809 72 131 7.0 14.0 0.00 0.00 0.00 56 1007.1
20260504150304 72 217 6.0 14.0 0.00 0.00 0.00 57 1007.1
20260504141314 70 231 6.0 15.0 0.00 0.00 0.00 56 1007.8
20260504140808 70 217 4.0 11.0 0.00 0.00 0.00 57 1007.9
20260504140323 70 215 6.0 12.0 0.00 0.00 0.00 57 1007.9
20260504130800 66 184 7.0 13.0 0.00 0.00 0.00 61 1008.3
20260504130300 66 141 6.0 11.0 0.00 0.00 0.00 61 1008.3
20260504120300 61 166 3.0 10.0 0.00 0.00 0.00 67 1008.4
20260504110306 61 138 2.0 8.0 0.00 0.00 0.00 65 1008.7
20260504100310 63 219 1.0 6.0 0.00 0.00 0.00 62 1009.1
20260504081823 64 159 3.0 10.0 0.00 0.00 0.00 60 1009.3
20260504081316 64 218 2.0 10.0 0.00 0.00 0.00 61 1009.4
20260504080811 64 228 2.0 7.0 0.00 0.00 0.00 61 1009.4
20260504080306 65 207 3.0 7.0 0.00 0.00 0.00 60 1009.5
20260504070308 65 207 3.0 9.0 0.00 0.00 0.00 61 1010.0
20260504050301 67 218 1.0 8.0 0.00 0.00 0.00 59 1010.7
20260504045816 67 197 3.0 6.0 0.00 0.00 0.00 59 1010.7
20260504045311 67 221 3.0 6.0 0.00 0.00 0.00 59 1010.7
20260504044805 67 214 3.0 7.0 0.00 0.00 0.00 59 1010.6
20260504044300 67 236 3.0 8.0 0.00 0.00 0.00 60 1010.7
20260504043835 67 218 4.0 8.0 0.00 0.00 0.00 59 1010.7
20260504043309 67 205 3.0 7.0 0.00 0.00 0.00 60 1010.7
20260504042804 67 210 3.0 6.0 0.00 0.00 0.00 60 1010.7
20260504042304 66 203 2.0 8.0 0.00 0.00 0.00 60 1010.7
20260504041817 66 163 1.0 8.0 0.00 0.00 0.00 61 1010.8
20260504041311 66 210 2.0 5.0 0.00 0.00 0.00 62 1010.8
20260504040805 66 219 0.0 5.0 0.00 0.00 0.00 63 1010.8
20260504040300 66 183 0.0 3.0 0.00 0.00 0.00 62 1010.9
20260504035813 66 231 0.0 3.0 0.00 0.00 0.00 63 1010.9
20260504035309 66 188 1.0 4.0 0.00 0.00 0.00 63 1010.9
20260504034803 66 186 1.0 6.0 0.00 0.00 0.00 62 1010.9
20260504034317 65 210 2.0 6.0 0.00 0.00 0.00 63 1010.9
20260504033816 65 199 2.0 5.0 0.00 0.00 0.00 64 1010.9
20260504033311 65 226 0.0 4.0 0.00 0.00 0.00 64 1011.0
20260504032805 65 184 0.0 5.0 0.00 0.00 0.00 64 1011.0
20260504032300 65 167 1.0 6.0 0.00 0.00 0.00 64 1011.0
20260504031815 65 177 2.0 6.0 0.00 0.00 0.00 64 1011.0
20260504031330 65 221 1.0 4.0 0.00 0.00 0.00 63 1010.9
20260504030804 65 156 1.0 5.0 0.00 0.00 0.00 63 1011.0
20260504030259 65 202 2.0 5.0 0.00 0.00 0.00 62 1010.9
20260504025834 66 136 1.0 5.0 0.00 0.00 0.00 62 1011.0
20260504025312 66 205 1.0 5.0 0.00 0.00 0.00 61 1011.0
20260504024807 66 165 1.0 4.0 0.00 0.00 0.00 61 1011.0
20260504024322 66 172 2.0 5.0 0.00 0.00 0.00 60 1011.0
20260504023816 66 185 1.0 5.0 0.00 0.00 0.00 60 1011.0
20260504023311 66 214 2.0 4.0 0.00 0.00 0.00 59 1010.9
20260504022805 66 134 2.0 3.0 0.00 0.00 0.00 59 1010.9
20260504022301 66 208 1.0 4.0 0.00 0.00 0.00 59 1010.9
20260504021800 66 165 2.0 4.0 0.00 0.00 0.00 58 1011.0
20260504021314 67 158 0.0 2.0 0.00 0.00 0.00 59 1010.9
20260504020809 67 170 0.0 4.0 0.00 0.00 0.00 57 1010.9
20260504020303 67 174 1.0 4.0 0.00 0.00 0.00 56 1010.9
20260504015839 67 179 1.0 3.0 0.00 0.00 0.00 57 1011.0
20260504015312 68 154 1.0 3.0 0.00 0.00 0.00 56 1010.9
20260504014806 68 215 0.0 2.0 0.00 0.00 0.00 56 1010.8
20260504014259 68 205 0.0 2.0 0.00 0.00 0.00 56 1010.9
20260504013813 68 214 0.0 2.0 0.00 0.00 0.00 56 1010.9
20260504013328 68 212 0.0 2.0 0.00 0.00 0.00 56 1010.9
20260504012806 69 198 0.0 1.0 0.00 0.00 0.00 56 1010.8
20260504012301 69 190 0.0 1.0 0.00 0.00 0.00 56 1010.8
20260504011815 69 208 0.0 1.0 0.00 0.00 0.00 55 1010.8
20260504011330 70 157 0.0 0.0 0.00 0.00 0.00 54 1010.8
20260504010804 71 203 0.0 0.0 0.00 0.00 0.00 53 1010.9
20260504010258 71 221 0.0 2.0 0.00 0.00 0.00 53 1010.9
20260504005309 72 211 0.0 3.0 0.00 0.00 0.00 51 1010.9
20260504004809 73 214 0.0 3.0 0.00 0.00 0.00 50 1011.0
20260504004302 73 215 0.0 2.0 0.00 0.00 0.00 49 1011.1
20260504003817 73 213 0.0 5.0 0.00 0.00 0.00 49 1011.0
20260504003312 73 218 0.0 3.0 0.00 0.00 0.00 49 1011.1
20260504002806 74 222 0.0 1.0 0.00 0.00 0.00 48 1011.2
20260504002321 74 188 0.0 1.0 0.00 0.00 0.00 47 1011.2
20260504001815 75 198 0.0 2.0 0.00 0.00 0.00 47 1011.3
20260504001310 76 182 0.0 4.0 0.00 0.00 0.00 45 1011.3
20260504000804 76 267 1.0 4.0 0.00 0.00 0.00 44 1011.3
20260504000303 77 209 0.0 5.0 0.00 0.00 0.00 43 1011.3
20260503235838 77 192 2.0 5.0 0.00 0.00 0.00 42 1011.4
20260503235312 78 210 0.0 5.0 0.00 0.00 0.00 42 1011.5
20260503234808 78 136 0.0 5.0 0.00 0.00 0.00 42 1011.6
20260503234323 78 229 2.0 5.0 0.00 0.00 0.00 41 1011.5
20260503233818 78 218 1.0 5.0 0.00 0.00 0.00 41 1011.5
20260503233312 77 217 1.0 4.0 0.00 0.00 0.00 41 1011.4
20260503232807 77 198 1.0 5.0 0.00 0.00 0.00 41 1011.4
20260503232306 77 239 0.0 5.0 0.00 0.00 0.00 40 1011.5
20260503231801 77 221 1.0 6.0 0.00 0.00 0.00 40 1011.5